Location: The Saddle
(36.8333°N, 80.3417°W)
Time: 21:29:49
(UTC-05:00)

Vanguard 3 - All Passes

Search period start: 30 November 2023 00:00
Search period end: 10 December 2023 00:00
Orbit: 507 x 3241 km, 33.3° (Epoch: 30 November)

Date Brightness Start Highest point End Pass type
(mag) Time Alt. Az. Time Alt. Az. Time Alt. Az.
30 Nov - 01:53:51 10° W 01:59:42 58° S 02:03:39 10° ESE night (unlit)
30 Nov - 04:06:53 10° W 04:10:25 29° SSW 04:13:40 10° SE visible
30 Nov - 20:10:59 10° S 20:17:56 16° SSE 20:23:23 10° ESE visible
30 Nov - 22:21:13 10° SW 22:31:06 35° SSE 22:37:09 10° E visible
01 Dec - 00:35:22 10° WSW 00:43:08 57° S 00:47:47 10° E night (unlit)
01 Dec - 02:49:20 10° W 02:54:15 47° SSW 02:57:54 10° ESE night (unlit)
01 Dec - 05:02:50 10° WSW 05:04:43 13° SSW 05:06:37 10° S visible
01 Dec - 21:02:56 10° SSW 21:13:29 27° SSE 21:20:25 10° ESE visible
01 Dec - 23:16:24 10° WSW 23:26:12 50° SSE 23:31:51 10° E visible
02 Dec - 01:31:09 10° W 01:37:51 61° S 01:42:05 10° ESE night (unlit)
02 Dec - 03:44:49 10° W 03:48:35 27° SSW 03:51:46 10° SE visible
02 Dec - 19:45:40 10° S 19:55:25 20° SSE 20:02:37 10° ESE visible
02 Dec - 21:57:17 10° SW 22:08:51 41° SSE 22:15:41 10° E visible
03 Dec - 00:12:14 10° WSW 00:21:08 63° S 00:26:16 10° E night (unlit)
03 Dec - 02:26:51 10° W 02:32:24 47° SSW 02:36:14 10° ESE night (unlit)
03 Dec - 04:41:28 10° SW 04:42:45 11° SSW 04:43:59 10° SSW visible
03 Dec - 18:31:05 10° SSE 18:36:59 13° SE 18:42:07 10° SE visible
03 Dec - 20:38:30 10° SSW 20:51:01 33° SSE 20:59:00 10° E visible
03 Dec - 22:52:49 10° WSW 23:04:02 57° S 23:10:19 10° E visible
04 Dec - 01:08:16 10° W 01:15:56 63° S 01:20:32 10° ESE night (unlit)
04 Dec - 03:22:36 10° W 03:26:41 26° SSW 03:29:55 10° SSE night (unlit)
04 Dec - 19:20:42 10° SSW 19:32:44 25° SSE 19:41:23 10° ESE visible
04 Dec - 21:33:15 10° SW 21:46:27 48° SSE 21:54:07 10° E visible
04 Dec - 23:48:57 10° WSW 23:59:04 67° S 00:04:42 10° E night (unlit)
05 Dec - 02:04:12 10° W 02:10:30 47° SSW 02:14:37 10° SE night (unlit)
05 Dec - 04:20:32 10° SW 04:20:42 10° SW 04:20:53 10° SSW night (unlit)
05 Dec - 18:04:53 10° S 18:14:08 16° SE 18:21:48 10° ESE visible
05 Dec - 20:14:07 10° SW 20:28:22 38° SSE 20:37:24 10° E visible
05 Dec - 22:29:07 10° WSW 22:41:45 62° S 22:48:43 10° E visible
06 Dec - 00:45:12 10° W 00:53:56 64° S 00:58:58 10° ESE night (unlit)
06 Dec - 03:00:12 10° W 03:04:43 25° SSW 03:08:05 10° SSE night (unlit)
06 Dec - 18:55:55 10° SSW 19:09:52 29° SSE 19:19:50 10° E visible
06 Dec - 21:09:12 10° SW 21:23:55 53° SSE 21:32:25 10° E visible
06 Dec - 23:25:30 10° W 23:36:53 70° S 23:43:07 10° E visible
07 Dec - 01:41:20 10° W 01:48:31 46° SSW 01:52:58 10° SE night (unlit)
07 Dec - 17:39:29 10° S 17:51:07 20° SE 18:00:38 10° ESE visible
07 Dec - 19:49:44 10° SW 20:05:34 44° SSE 20:15:39 10° E visible
07 Dec - 22:05:18 10° WSW 22:19:19 67° S 22:27:02 10° E visible
08 Dec - 00:21:58 10° W 00:31:49 65° S 00:37:22 10° ESE night (unlit)
08 Dec - 02:37:36 10° W 02:42:40 25° SSW 02:46:18 10° SSE night (unlit)
08 Dec - 16:28:02 10° SSE 16:32:17 11° SE 16:36:19 10° SE daylight
08 Dec - 18:31:19 10° SSW 18:46:50 33° SSE 18:58:03 10° E visible
08 Dec - 20:45:05 10° WSW 21:01:12 59° SSE 21:10:39 10° E visible
08 Dec - 23:01:53 10° W 23:14:35 72° S 23:21:28 10° E visible
09 Dec - 01:18:18 10° W 01:26:26 46° SSW 01:31:18 10° SE night (unlit)
09 Dec - 17:14:32 10° S 17:27:55 23° SE 17:38:59 10° E visible
09 Dec - 19:25:27 10° SW 19:42:35 48° SSE 19:53:45 10° E visible
09 Dec - 21:41:24 10° WSW 21:56:45 70° S 22:05:18 10° E visible
